Location: Unspecified
(0.0000°N, 0.0000°E)
Time: 17:24:10
(UTC+00:00)

Envisat - Pass Details

Date: 16 January 2020
Orbit: 764 x 766 km, 98.1° (Epoch: 23 January)

Event Time Altitude Azimuth Distance (km) Brightness Sun altitude
Rises 19:29:53 0° 206° (SSW) 3,230 7.0 -18.7°
Reaches altitude 10° 19:33:58 10° 239° (WSW) 2,300 6.7 -19.6°
Maximum altitude 19:35:32 11° 257° (WSW) 2,203 6.5 -20.0°
Drops below altitude 10° 19:37:06 10° 276° (W) 2,297 6.4 -20.3°
Sets 19:41:11 0° 309° (NW) 3,218 6.6 -21.3°
